GW5810 Weather Reports


Display with metric or nautical units.
time (UTC)temp
F
wind
direction
speed
MPH
gust
MPH
rain 1hr
in
rain 24hr
in
rain mn
in
humidity
%
barometer
mb
20260508012825 43 193 1.0 3.0 0.00 0.00 0.00 98 1016.7
20260508012323 43 0 1.0 3.0 0.00 0.00 0.00 98 1016.7
20260508011825 43 210 1.0 4.0 0.00 0.00 0.00 98 1016.9
20260508011326 43 0 1.0 4.0 0.00 0.00 0.00 98 1016.9
20260508010826 43 170 1.0 4.0 0.00 0.00 0.00 98 1016.9
20260508010321 43 230 0.0 3.0 0.00 0.00 0.00 97 1017.1
20260508005823 44 204 0.0 4.0 0.00 0.00 0.00 97 1017.0
20260508005326 44 0 0.0 4.0 0.00 0.00 0.00 97 1016.8
20260508004823 44 156 0.0 3.0 0.00 0.00 0.00 97 1016.8
20260508004322 44 0 1.0 5.0 0.00 0.00 0.00 97 1016.7
20260508003818 44 119 1.0 5.0 0.00 0.00 0.00 97 1016.6
20260508003642 44 125 1.0 4.0 0.00 0.00 0.00 97 1016.7
20260508002819 44 160 1.0 4.0 0.00 0.00 0.00 96 1016.8
20260508002318 44 187 0.0 3.0 0.00 0.00 0.00 96 1016.9
20260508001819 44 0 0.0 2.0 0.00 0.00 0.00 96 1017.1
20260508001321 44 0 0.0 3.0 0.00 0.00 0.00 96 1017.1
20260508000815 44 160 0.0 3.0 0.00 0.00 0.00 95 1017.0
20260508000314 44 103 0.0 3.0 0.00 0.00 0.00 95 1017.1
20260507235812 45 156 0.0 2.0 0.00 0.00 0.00 95 1017.4
20260507235626 45 0 0.0 3.0 0.00 0.00 0.00 95 1017.4
20260507234812 45 172 0.0 3.0 0.00 0.00 0.00 95 1017.3
20260507234624 45 178 1.0 4.0 0.00 0.00 0.00 94 1017.1
20260507234122 46 78 1.0 4.0 0.00 0.00 0.00 94 1017.0
20260507233625 46 130 1.0 4.0 0.00 0.00 0.00 94 1017.0
20260507232808 46 162 0.0 3.0 0.00 0.00 0.00 94 1017.3
20260507232308 46 0 0.0 3.0 0.00 0.00 0.00 94 1017.3
20260507231811 46 162 0.0 3.0 0.00 0.00 0.00 93 1017.4
20260507231309 46 0 0.0 3.0 0.00 0.00 0.00 93 1017.4
20260507230809 46 0 0.0 3.0 0.00 0.00 0.00 93 1017.5
20260507230309 46 0 0.0 4.0 0.00 0.00 0.00 93 1017.3
20260507225810 46 0 0.0 4.0 0.00 0.00 0.00 92 1017.4
20260507225308 46 155 0.0 3.0 0.00 0.00 0.00 92 1017.5
20260507224809 47 0 1.0 3.0 0.00 0.00 0.00 92 1017.5
20260507224308 47 207 1.0 3.0 0.00 0.00 0.00 91 1017.4
20260507223806 47 190 1.0 4.0 0.00 0.00 0.00 91 1017.3
20260507223306 47 168 1.0 4.0 0.00 0.00 0.00 91 1017.2
20260507222806 47 145 1.0 4.0 0.00 0.00 0.00 91 1017.2
20260507222306 47 168 1.0 4.0 0.00 0.00 0.00 91 1017.2
20260507221809 47 0 1.0 3.0 0.00 0.00 0.00 90 1017.3
20260507221306 47 169 1.0 4.0 0.00 0.00 0.00 90 1017.2
20260507220806 48 168 2.0 4.0 0.00 0.00 0.00 90 1017.2
20260507220308 48 153 2.0 5.0 0.00 0.00 0.00 90 1017.1
20260507215805 48 149 1.0 5.0 0.00 0.00 0.00 90 1017.2
20260507215307 48 137 1.0 5.0 0.00 0.00 0.00 90 1017.2
20260507214805 48 150 1.0 4.0 0.00 0.00 0.00 89 1017.3
20260507214304 48 166 1.0 4.0 0.00 0.00 0.00 89 1017.4
20260507213806 48 162 2.0 4.0 0.00 0.00 0.00 89 1017.4
20260507213307 48 203 2.0 4.0 0.00 0.00 0.00 88 1017.4
20260507212806 49 173 1.0 5.0 0.00 0.00 0.00 88 1017.4
20260507212307 49 165 2.0 5.0 0.00 0.00 0.00 87 1017.4
20260507211806 49 159 2.0 6.0 0.00 0.00 0.00 87 1017.4
20260507211624 49 191 2.0 6.0 0.00 0.00 0.00 86 1017.4
20260507210805 50 0 2.0 6.0 0.00 0.00 0.00 86 1017.3
20260507210642 50 151 2.0 8.0 0.00 0.00 0.00 85 1017.2
20260507205803 51 186 3.0 9.0 0.00 0.00 0.00 84 1017.0
20260507205620 51 166 3.0 9.0 0.00 0.00 0.00 84 1016.7
20260507204802 51 148 3.0 8.0 0.00 0.01 0.00 83 1016.7
20260507204301 51 164 2.0 6.0 0.00 0.02 0.00 83 1016.7
20260507203802 51 162 2.0 6.0 0.00 0.02 0.00 82 1016.7
20260507203302 51 175 2.0 6.0 0.00 0.03 0.00 82 1016.6
20260507202802 52 180 2.0 6.0 0.00 0.04 0.00 82 1016.5
20260507202306 52 196 2.0 7.0 0.00 0.04 0.00 81 1016.4
20260507201802 52 161 2.0 7.0 0.00 0.04 0.00 81 1016.3
20260507201302 52 155 2.0 7.0 0.00 0.04 0.00 81 1016.2
20260507200802 52 145 2.0 9.0 0.00 0.04 0.00 81 1016.1
20260507200304 52 144 2.0 9.0 0.00 0.04 0.00 80 1016.1
20260507195804 52 162 2.0 7.0 0.00 0.04 0.00 80 1016.0
20260507195306 52 131 2.0 6.0 0.00 0.04 0.00 80 1016.0
20260507194801 52 160 2.0 6.0 0.00 0.04 0.00 79 1016.1
20260507194301 53 0 2.0 6.0 0.00 0.04 0.00 79 1016.1
20260507193804 53 158 2.0 7.0 0.00 0.04 0.00 79 1016.0
20260507193618 53 181 2.0 8.0 0.00 0.05 0.00 79 1015.9
20260507193132 53 151 3.0 8.0 0.00 0.05 0.00 78 1015.8
20260507192301 53 161 3.0 8.0 0.00 0.06 0.00 78 1015.9
20260507191801 53 161 2.0 8.0 0.00 0.06 0.00 78 1015.8
20260507191300 53 199 3.0 8.0 0.00 0.06 0.00 78 1015.8
20260507190800 53 170 2.0 8.0 0.00 0.06 0.00 78 1015.7
20260507190302 53 162 3.0 8.0 0.00 0.06 0.00 78 1015.7
20260507185804 53 149 3.0 10.0 0.00 0.06 0.00 78 1015.6
20260507185625 53 164 3.0 10.0 0.00 0.06 0.00 78 1015.6
20260507184758 53 140 3.0 9.0 0.00 0.06 0.00 77 1015.6
20260507184257 53 141 3.0 9.0 0.00 0.06 0.00 77 1015.6
20260507183759 53 152 3.0 7.0 0.00 0.06 0.00 77 1015.6
20260507183259 53 157 3.0 8.0 0.00 0.06 0.00 77 1015.7
20260507182759 53 184 3.0 10.0 0.00 0.06 0.00 76 1015.6
20260507182259 54 119 3.0 10.0 0.00 0.06 0.00 76 1015.6
20260507181801 54 136 4.0 10.0 0.00 0.06 0.00 76 1015.6
20260507181259 54 145 4.0 10.0 0.00 0.07 0.00 76 1015.5
20260507180800 54 157 4.0 10.0 0.00 0.07 0.00 75 1015.4
20260507180300 54 97 4.0 10.0 0.00 0.07 0.00 75 1015.3
20260507175801 54 157 3.0 10.0 0.00 0.07 0.00 75 1015.2
20260507175257 54 160 3.0 8.0 0.00 0.07 0.00 74 1015.2
20260507174757 55 160 2.0 7.0 0.00 0.09 0.00 74 1015.2
20260507174257 55 134 2.0 7.0 0.00 0.09 0.00 74 1015.2
20260507173758 55 170 2.0 6.0 0.00 0.10 0.00 74 1015.1
20260507173257 55 80 2.0 6.0 0.00 0.10 0.00 73 1015.1
20260507172757 55 67 2.0 4.0 0.00 0.10 0.00 73 1015.1
20260507172258 55 117 2.0 7.0 0.00 0.11 0.00 73 1015.2
20260507171757 55 133 3.0 7.0 0.00 0.13 0.00 73 1015.2
20260507171258 55 153 3.0 7.0 0.00 0.14 0.00 72 1015.2
20260507170757 55 154 3.0 6.0 0.00 0.14 0.00 72 1015.2
20260507170258 55 155 3.0 8.0 0.00 0.14 0.00 72 1015.2
20260507165756 56 111 3.0 8.0 0.00 0.14 0.00 71 1015.2
20260507165256 56 161 3.0 8.0 0.00 0.14 0.00 71 1015.2
20260507164755 56 98 2.0 8.0 0.00 0.14 0.00 70 1015.2
20260507164254 56 160 3.0 8.0 0.00 0.14 0.00 71 1015.2
20260507163755 56 184 3.0 8.0 0.00 0.14 0.00 69 1015.2
20260507163255 56 186 3.0 8.0 0.00 0.14 0.00 70 1015.2
20260507162755 56 50 3.0 8.0 0.00 0.14 0.00 69 1015.2
20260507162613 56 170 3.0 8.0 0.00 0.14 0.00 68 1015.2
20260507161756 57 106 3.0 8.0 0.00 0.14 0.00 66 1015.2
20260507161255 56 161 2.0 7.0 0.00 0.14 0.00 65 1015.2
20260507160756 57 163 3.0 7.0 0.00 0.14 0.00 64 1015.2
20260507160256 57 159 3.0 8.0 0.00 0.14 0.00 64 1015.1
20260507160128 57 124 2.0 8.0 0.00 0.14 0.00 64 1015.1
20260507155640 57 172 1.0 6.0 0.00 0.14 0.00 64 1015.0
20260507154749 57 50 2.0 7.0 0.00 0.15 0.00 65 1015.0
20260507154250 57 210 3.0 8.0 0.00 0.16 0.00 64 1014.9
20260507154227 57 169 2.0 8.0 0.00 0.16 0.00 64 1014.9
20260507152747 57 153 2.0 8.0 0.00 0.16 0.00 65 1014.8
20260507152247 56 204 2.0 5.0 0.00 0.16 0.00 65 1014.9
20260507151746 56 172 2.0 6.0 0.00 0.16 0.00 64 1015.0
20260507151246 56 173 2.0 6.0 0.00 0.16 0.00 65 1015.1
20260507150747 56 138 2.0 6.0 0.00 0.16 0.00 66 1015.1
20260507150248 56 159 1.0 5.0 0.00 0.16 0.00 66 1015.1
20260507145748 56 112 2.0 6.0 0.00 0.16 0.00 66 1015.3
20260507145626 56 181 2.0 7.0 0.00 0.16 0.00 67 1015.4
20260507144748 56 168 3.0 8.0 0.00 0.16 0.00 66 1015.4
20260507144247 56 0 2.0 8.0 0.00 0.16 0.00 65 1015.5
20260507143748 56 76 3.0 8.0 0.00 0.16 0.00 65 1015.6
20260507143247 56 138 3.0 8.0 0.00 0.16 0.00 65 1015.6
20260507142746 57 174 3.0 9.0 0.00 0.16 0.00 64 1015.6
20260507142357 57 163 3.0 9.0 0.00 0.16 0.00 65 1015.6
20260507141245 57 163 4.0 10.0 0.00 0.16 0.00 63 1015.7
20260507140746 57 171 4.0 11.0 0.00 0.16 0.00 64 1015.6
20260507140245 57 191 5.0 11.0 0.00 0.16 0.00 62 1015.5
20260507135743 57 218 5.0 11.0 0.00 0.16 0.00 63 1015.4
20260507135240 57 154 4.0 11.0 0.00 0.16 0.00 64 1015.2
20260507134841 57 158 4.0 11.0 0.00 0.16 0.00 63 1015.2
20260507133740 58 70 4.0 10.0 0.00 0.16 0.00 62 1015.0
20260507133240 58 158 4.0 12.0 0.00 0.16 0.00 62 1015.0
20260507132740 58 190 4.0 12.0 0.00 0.16 0.00 62 1015.1
20260507132240 58 167 4.0 11.0 0.00 0.16 0.00 62 1014.8
20260507131740 57 187 5.0 13.0 0.00 0.16 0.00 64 1015.2
20260507131241 58 169 4.0 13.0 0.00 0.16 0.00 62 1015.3
20260507130741 58 163 4.0 12.0 0.00 0.16 0.00 62 1015.1
20260507130240 58 214 4.0 12.0 0.00 0.16 0.00 62 1015.2
20260507125740 58 176 3.0 12.0 0.00 0.16 0.00 63 1014.9
20260507125241 57 153 4.0 11.0 0.00 0.16 0.00 65 1015.1
20260507124737 58 66 5.0 11.0 0.00 0.16 0.00 63 1015.3
20260507124233 58 155 5.0 11.0 0.00 0.16 0.00 62 1015.0
20260507123734 58 162 4.0 11.0 0.00 0.16 0.00 63 1014.4
20260507123233 58 164 4.0 13.0 0.00 0.16 0.00 62 1014.8
20260507122734 58 199 5.0 13.0 0.00 0.16 0.00 62 1014.5
20260507122233 58 160 4.0 11.0 0.00 0.16 0.00 64 1013.9
20260507121734 58 109 3.0 11.0 0.00 0.17 0.00 65 1014.2
20260507121234 58 164 2.0 10.0 0.00 0.18 0.00 59 1014.5
20260507120734 57 209 4.0 10.0 0.00 0.19 0.00 62 1014.4
20260507120555 57 37 5.0 11.0 0.00 0.19 0.00 62 1014.7
20260507115734 56 194 4.0 11.0 0.00 0.19 0.00 64 1015.2
20260507115234 56 164 4.0 11.0 0.00 0.19 0.00 65 1015.6
20260507114734 57 288 3.0 11.0 0.00 0.21 0.00 64 1015.5
20260507114232 57 94 3.0 11.0 0.00 0.22 0.00 65 1014.2
20260507113846 57 163 2.0 9.0 0.00 0.23 0.00 64 1014.3
20260507112734 56 328 2.0 8.0 0.00 0.30 0.00 68 1014.9
20260507112235 57 79 3.0 10.0 0.00 0.30 0.00 67 1015.5
20260507111735 57 49 4.0 10.0 0.00 0.30 0.00 66 1015.4
20260507111232 58 203 4.0 10.0 0.00 0.30 0.00 63 1013.9
20260507110734 57 197 3.0 10.0 0.00 0.31 0.00 67 1013.8
20260507110234 56 181 2.0 7.0 0.00 0.31 0.00 66 1014.9
20260507105734 55 186 2.0 7.0 0.00 0.31 0.00 69 1015.2
20260507105236 55 82 2.0 7.0 0.00 0.31 0.00 70 1015.5
20260507105059 55 177 2.0 9.0 0.00 0.31 0.00 70 1015.5
20260507104547 56 125 4.0 11.0 0.00 0.32 0.00 70 1015.9
20260507103731 57 53 4.0 11.0 0.00 0.32 0.00 68 1014.4
20260507103231 57 131 2.0 9.0 0.00 0.33 0.00 69 1014.2
20260507103044 56 245 2.0 9.0 0.00 0.34 0.00 69 1014.1
20260507102231 55 250 2.0 9.0 0.00 0.34 0.00 71 1014.5
20260507101731 55 266 3.0 9.0 0.00 0.34 0.00 70 1014.7
20260507101230 55 152 3.0 9.0 0.00 0.34 0.00 72 1016.6
20260507100730 55 124 3.0 9.0 0.00 0.34 0.00 72 1014.7
20260507100230 55 91 3.0 12.0 0.00 0.34 0.00 71 1014.4
20260507095731 55 71 3.0 12.0 0.00 0.34 0.00 70 1014.5
20260507095228 55 160 2.0 8.0 0.00 0.34 0.00 70 1014.3
20260507094726 54 141 2.0 9.0 0.00 0.34 0.00 72 1015.2
20260507094226 55 170 3.0 9.0 0.00 0.34 0.00 68 1015.9
20260507093722 55 213 3.0 9.0 0.00 0.34 0.00 71 1013.8
20260507093222 54 51 2.0 6.0 0.00 0.34 0.00 69 1014.5
20260507092723 53 170 1.0 6.0 0.00 0.34 0.00 73 1014.3
20260507092222 53 165 1.0 5.0 0.00 0.34 0.00 74 1016.4
20260507091722 53 99 1.0 5.0 0.00 0.34 0.00 75 1016.6
20260507091222 54 71 2.0 6.0 0.00 0.34 0.00 74 1016.0
20260507090724 54 182 3.0 8.0 0.00 0.34 0.00 74 1015.1
20260507090319 54 163 3.0 9.0 0.00 0.34 0.00 75 1014.6
20260507085223 54 88 2.0 9.0 0.00 0.35 0.00 73 1014.4
20260507084722 54 59 2.0 6.0 0.00 0.36 0.00 73 1014.4
20260507084221 53 118 2.0 6.0 0.00 0.36 0.00 73 1014.5
20260507083721 53 164 2.0 8.0 0.00 0.36 0.00 74 1015.5
20260507083220 53 57 2.0 8.0 0.00 0.37 0.00 77 1014.7
20260507082721 53 191 2.0 7.0 0.00 0.37 0.00 76 1014.8
20260507082217 53 164 2.0 8.0 0.00 0.37 0.00 77 1014.7
20260507081716 52 156 3.0 8.0 0.00 0.37 0.00 79 1014.9
20260507081217 52 151 3.0 8.0 0.00 0.38 0.00 78 1014.9
20260507080717 52 150 3.0 8.0 0.00 0.38 0.00 80 1015.0
20260507080217 52 94 2.0 7.0 0.00 0.38 0.00 80 1015.2
20260507075718 51 190 2.0 8.0 0.00 0.38 0.00 82 1014.9
20260507075215 51 147 2.0 8.0 0.00 0.38 0.00 80 1014.9
20260507074715 51 59 3.0 8.0 0.00 0.38 0.00 82 1014.9
20260507074212 51 199 2.0 8.0 0.00 0.38 0.00 82 1015.0
20260507073712 50 0 2.0 8.0 0.00 0.38 0.00 84 1015.0
20260507073210 50 184 3.0 8.0 0.00 0.38 0.00 86 1015.3
20260507072710 50 156 3.0 7.0 0.00 0.38 0.00 87 1014.9
20260507072209 50 254 2.0 7.0 0.00 0.38 0.00 88 1014.9
20260507071706 50 198 2.0 6.0 0.00 0.38 0.00 89 1014.8
20260507071526 49 196 2.0 6.0 0.00 0.38 0.00 91 1014.9
20260507070706 49 161 2.0 7.0 0.00 0.38 0.00 93 1015.0
20260507070206 48 153 2.0 7.0 0.00 0.38 0.00 95 1015.1
20260507065709 48 161 2.0 6.0 0.00 0.38 0.00 96 1015.1
20260507065209 47 182 1.0 6.0 0.00 0.38 0.00 98 1015.0
20260507064706 47 182 1.0 4.0 0.00 0.38 0.00 99 1015.2
20260507064207 46 0 1.0 3.0 0.00 0.38 0.00 99 1015.0
20260507063707 46 66 1.0 3.0 0.00 0.38 0.00 100 1015.3
20260507063526 46 0 0.0 3.0 0.00 0.38 0.00 100 1015.4
20260507062710 45 131 0.0 3.0 0.00 0.38 0.00 100 1015.6
20260507062206 45 147 0.0 3.0 0.00 0.38 0.00 100 1015.7
20260507061706 45 0 0.0 2.0 0.00 0.38 0.00 99 1015.9
20260507061207 45 147 0.0 2.0 0.00 0.38 0.00 99 1016.0
20260507060706 45 0 0.0 1.0 0.00 0.38 0.00 99 1016.1
20260507060206 45 0 0.0 1.0 0.00 0.38 0.00 99 1016.3
20260507055704 44 0 0.0 1.0 0.00 0.38 0.00 99 1016.2
20260507055204 44 0 0.0 3.0 0.00 0.38 0.00 99 1016.0
20260507054702 44 0 0.0 3.0 0.00 0.38 0.00 99 1015.9
20260507054204 44 123 0.0 3.0 0.00 0.38 0.00 99 1015.9
20260507053704 44 0 0.0 3.0 0.00 0.38 0.00 99 1015.8
20260507053202 44 126 0.0 3.0 0.00 0.38 0.00 99 1015.7
20260507052759 44 0 0.0 2.0 0.00 0.38 0.00 99 1015.7
20260507051704 44 79 0.0 2.0 0.00 0.38 0.00 99 1015.6
20260507051519 44 0 0.0 2.0 0.00 0.38 0.00 99 1015.6
20260507050703 44 0 0.0 2.0 0.00 0.38 0.00 99 1015.6
20260507050535 44 71 0.0 2.0 0.00 0.38 0.00 99 1015.6
20260507045701 44 0 0.0 2.0 0.00 0.38 0.00 100 1015.6
20260507045202 44 0 0.0 2.0 0.00 0.38 0.00 100 1015.6
20260507044702 44 0 0.0 2.0 0.00 0.38 0.00 100 1015.6
20260507044202 44 0 0.0 1.0 0.00 0.38 0.00 100 1015.6
20260507043702 43 0 0.0 1.0 0.00 0.38 0.00 100 1015.6
20260507043201 43 0 0.0 1.0 0.00 0.38 0.00 100 1015.6
20260507042701 43 0 0.0 1.0 0.00 0.38 0.00 100 1015.6
20260507042201 43 0 0.0 3.0 0.00 0.38 0.00 100 1015.6
20260507041703 43 0 0.0 3.0 0.00 0.38 0.00 100 1015.5
20260507041200 43 68 0.0 3.0 0.00 0.38 0.00 100 1015.5
20260507040701 43 57 1.0 2.0 0.00 0.38 0.00 100 1015.5
20260507040201 43 48 0.0 2.0 0.00 0.38 0.00 100 1015.4
20260507035701 43 0 0.0 1.0 0.00 0.38 0.00 99 1015.7
20260507035201 43 0 0.0 1.0 0.00 0.38 0.00 99 1015.8
20260507034703 43 0 0.0 1.0 0.00 0.38 0.00 99 1015.9
20260507034201 44 0 0.0 1.0 0.00 0.38 0.00 99 1015.8
20260507033701 44 0 0.0 0.0 0.00 0.38 0.00 99 1015.8
20260507033201 44 0 0.0 0.0 0.00 0.38 0.00 99 1015.9
20260507033015 44 0 0.0 1.0 0.00 0.38 0.00 99 1015.9
20260507032203 44 0 0.0 1.0 0.00 0.38 0.00 99 1015.6
20260507031702 44 0 0.0 0.0 0.00 0.38 0.00 99 1015.7
20260507031157 45 0 0.0 3.0 0.00 0.38 0.00 99 1015.7
20260507030657 45 0 0.0 3.0 0.00 0.38 0.00 99 1015.6
20260507030159 45 0 0.0 2.0 0.00 0.38 0.00 99 1015.6
20260507025701 45 157 0.0 2.0 0.00 0.38 0.00 99 1015.5
20260507025159 45 0 0.0 2.0 0.00 0.38 0.00 99 1015.6
20260507024700 45 172 0.0 2.0 0.00 0.38 0.00 99 1015.6
20260507024201 45 0 0.0 2.0 0.00 0.38 0.00 99 1015.4
20260507023701 45 0 0.0 1.0 0.00 0.38 0.00 99 1015.3
20260507023533 46 0 0.0 1.0 0.00 0.38 0.00 99 1015.2
20260507022701 46 0 0.0 2.0 0.00 0.38 0.00 99 1015.2
20260507022200 46 0 0.0 2.0 0.00 0.38 0.00 99 1015.1
20260507021659 46 0 0.0 2.0 0.00 0.38 0.00 99 1015.2
20260507021158 46 0 0.0 0.0 0.00 0.38 0.00 99 1015.2
20260507020656 46 0 0.0 1.0 0.00 0.38 0.00 99 1015.1
20260507020156 46 0 0.0 1.0 0.00 0.38 0.00 99 1015.1
20260507015657 46 0 0.0 1.0 0.00 0.38 0.00 99 1015.1
20260507015157 46 0 0.0 1.0 0.00 0.38 0.00 99 1015.1
20260507014657 46 0 0.0 3.0 0.00 0.38 0.00 99 1015.1
20260507014156 46 0 0.0 3.0 0.00 0.38 0.00 99 1015.1
20260507013656 46 0 0.0 3.0 0.00 0.38 0.00 99 1015.1
20260507013158 46 0 0.0 3.0 0.00 0.38 0.00 99 1015.0